Погода Ростов Великий

Погода Ростов Великий : погода сейчас, прогноз погоды и архив. Всё, что Вы хотите узнать о погоде Ростов Великий!

Хотите узнать прогноз погоды Ростов Великий? Тогда Вам сюда: Погода Ростов Великий

Поиск расширенной информации на нашем сайте:

Другие новости

Новости СМИ2

Главная страница сайта

Новости сайта

03.07.2017

Напоминаем, что на нашем специализированном сайте Метеоцентр.Азия вы можете получить высокодетализированные автоматические прогнозы погоды по пунктам России, СНГ и мира в авиационном формате (включающие направление и скорость ветра, видимость, явления погоды, количество и форму облачности, нижнюю и верхнюю границу облачности).


Погода Ростов Великий - сегодня

Время (UTC), дата Ветер
(°,м/с) 
Видим.   Явления Облачность Т
(°С)
Тd
(°С)
f(%) Тe
(°С)
Pmin
(гПа)
dP
(гПа)
Po
(мм)
O2
(г/м3)
Тmin Tmax R s Состояние
почвы
21 14.08.18 180 (Ю) н/о    н/о 
+12.4 +10.2 86 +15  1015.3  0.6  752  288           
00 15.08.18 200 (Ю) н/о    н/о 
+11.2 +9.6 90 +13  1015.1  -0.3  752  289           
03 15.08.18 тихо ()   50000 м    9/9 600 м кучево-дожд. 
[Cb cap]
+10.8 +9.7 93 +12  1014.8  0.6  752  290  +8.4         
06 15.08.18 160 (Ю) 20000 м    9/9 600 м кучево-дожд. 
[Cb cap]
+17.8 +15 84 +28  1013.1  -1.4  751  281           
09 15.08.18 160 (Ю) 20000 м    10/0 средняя 
[As trans]
+21.4 +14.9 66 +30  1010.7  -2.2  749  277           
12 15.08.18 190 (Ю) 20000 м    10/8 600 м средняя 
[Sc|Ac und]
+23.3 +15.1 60 +32  1009.1  -1.5  748  275           
18 15.08.18 300 (СЗ) 7000 м  ливневой дождь  10/10 600 м кучево-дожд. 
[Cb cap]
+18.1 +17.1 94 +31  1007.8  -0.4  747  278           
21 15.08.18 220 (ЮЗ) н/о    н/о 
+16.2 +15.4 95 +27  1008.4  0.5  747  281           
00 16.08.18 280 (З) н/о    н/о 
+17.2 +16.2 94 +29  1009.5  1.1  748  280           
03 16.08.18 310 (СЗ) н/о    н/о 
+16.6 +15.7 94 +27  1011.1  1.5  749  281  +15.4       
06 16.08.18 330 (СЗ) 20000 м  {морось}  10/10 600 м кучево-дожд. 
[Cb cap]
+16.1 +14.9 93 +24  1013.4  2.2  751  283           
09 16.08.18 010 (С) 25000 м  {морось}  10/10 600 м кучево-дожд. 
[Cb cap]
+17.3 +13.3 77 +24  1015.7  2.3  753  283           
18 16.08.18 350 (С) 50000 м    3/3 600 м 
[Sc diur, vesp]
+14.4 +11.9 85 +20  1020.4  1.8  756  287           
21 16.08.18 350 (С) н/о    н/о 
+12 +10.9 93 +14  1021.8  1.3  757  290           
00 17.08.18 320 (СЗ) н/о    н/о 
+9.7 +8.9 95 +11  1023.1  1.1  758  293           
03 17.08.18 350 (С) 26000 м    ясно 
+9.6 +8.9 95 +11  1024.5  1.5  759  294  +8.4         
06 17.08.18 050 (СВ) 25000 м    ясно 
+16.9 +11.4 70 +21  1025.3  760  286           
09 17.08.18 250 (З) 30000 м    3/3 600 м 
[Cu med, cong]
+20.6 +10.6 53 +22  1024.9  -0.2  760  283           
12 17.08.18 170 (Ю) 25000 м    3/3 600 м 
[Cu med, cong]
+22 +8.4 42 +22  1024.4  -0.4  759  282           
18 17.08.18 320 (СЗ) 28000 м    8/0 средняя, верхняя 
[Ac trans|Ci fib]
+13.1 +11.7 91 +17  1024.3  759  290           
21 17.08.18 тихо ()   н/о    н/о 
+10 +9.3 95 +10  1025  0.5  759  294           
00 18.08.18 340 (С) н/о    н/о 
+7.9 +7.3 96 +9  1025.9  0.8  760  296           
03 18.08.18 350 (С) 3000 м  дымка  8/8 600 м 
[Sc]
+7.1 +6.5 96 +8  1026.5  0.6  761  298  +6.5         
06 18.08.18 200 (Ю) 50000 м    ясно 
+16.1 +12.8 81 +22  1026  0.1  760  287           
09 18.08.18 160 (Ю) 50000 м    3/3 600 м 
[Sc]
+21.3 +8.3 43 +21  1025.1  -0.7  760  283           
Время (UTC), дата Ветер
(°,м/с) 
Видим.   Явления Облачность Т
(°С)
Тd
(°С)
f(%) Тe
(°С)
Pmin
(гПа)
dP
(гПа)
Po
(мм)
O2
(г/м3)
Тmin Tmax R s Состояние
почвы

Для получения пояснительной информации подведите курсор к названию столбца.

ПОГОДА Ростов Великий - архив

Всё, что Вы хотите узнать о погоде Ростов Великий - удобно и подробно!

Выберите нужную дату (начиная с 1 января 2015* года) и нажмите кнопку "Найти".
Будут отображены архивные сводки погоды по пункту Ростов Великий, начиная с указанной даты.


Отображать данные в формате CSV (для использования в таблицах Excel)


Внимание! Наш архив погоды предназначен исключительно для личного некоммерческого использования в познавательных целях. Если Вам необходимы официальные справки о состоянии погоды (для производственных, юридических, коммерческих и т.п. целей), обращайтесь в органы Росгидромета.

*Примечание: данная дата относится к архиву по метеостанциям СССР (Россия, СНГ, Балтия).
Архив по метеостанциям Зарубежной Европы и Азии (кроме Китая) хранится 10 дней, по другим регионам земного шара (Китай, Африка, Америка, Австралия, Океания) - 1 день.

Ростов Великий - район местоположения метеостанции


Название, широта, долгота, высота метеостанции:
Ростов Великий 57.2°ш. 39.4°д. 101 м над ур. моря [Российская Федерация]

Дополнительная информация

В oтличие oт бoльшинства пoгoдных сайтoв мы публикуем пoдрoбную метеoинфoрмацию в детальнoм прoфессиoнальнoм фoрмате.

Характеристики температуры и влажнoсти вoздуха измеряются на высoте 2 м в тени вдали oт зданий и деревьев.
Скoрoсть ветра измеряется на высoте 10 м (на урoвне рoста челoвека скoрoсть ветра ниже в 1.5-2 раза). Если метеoстанция нахoдится в гoрoде или в лесу, тo скoрoсть ветра занижена на 2-4 м/с пo сравнению с oткрытым местoм. Скoрoсть ветра над акватoриями крупных рек и oзёр, а также на вершинах хoлмoв на 2-5 м/с выше, чем в oбычных услoвиях.
Атмoсфернoе давление в разных тoчках местнoсти мoжет значительнo oтличаться oт давления на метеoстанции, в зависимoсти oт услoвий рельефа (при пoдъёме на 10 м давление пoнижается примернo на 1 мм рт.ст.).